To NAV CANADA Home Page Login to a new session Search on AWWS site Feedback and Comments Disclaimer Vers la page française équivalente Tips FAQ What's new on the site To the Forecasts and Observations / NOTAM section To "File a Flight Plan" website Publications and other links Update of the User's profile FIC Telephone Numbers My Weather Data Folder Route Weather Data Regional Weather Data Local Weather Data To the Forecasts and Observations / NOTAM section
Request Generated 10/28/2016 at 19:50:24 UTC . Weather information available at that time is displayed.



METAR CYLA 281900Z 19019G25KT 15SM SCT020 OVC160 M04/M07 A2982 RMK
SC4AC4 SLP104=
METAR CYLA 281800Z 20019G26KT 15SM BKN020 OVC071 M04/M07 A2987 RMK
SC5AC3 SLP119=
METAR CYLA 281700Z 19017KT 15SM SCT020 OVC082 M04/M07 A2989 RMK
SC3AC5 SLP128=

CYLA - No TAF is issued for this station

Your time UTC time
Weather data provided by Environment Canada and NAV CANADA